Flag for China Weather past 2 weeks in Hangzhou, Zhejiang, China

Now
84 °F

Scattered clouds.


Feels Like: 87 °F
Forecast: 72 / 86 °F
Wind: 3 mph from Northeast

Location: Hangzhou Airport

Current Time: Aug 30, 2014 at 3:10:32 PM

Latest Report: Aug 30, 2014 at 2:30 PM


Visibility: 4 mi

Pressure: 29.89 "Hg

Humidity: 58%

Dew point: 68 °F

Location of HangzhouLocation

Historic Weather in Hangzhou — Graph

°F

Hangzhou temperature yesterday

Maximum temperature yesterday: 88 °F (at 1:30 PM)
Minimum temperature yesterday: 75 °F (at 3:00 AM)
Average temperature yesterday: 80 °F

Past Weeks' High & Low Weather Summary

 TemperatureHumidityPressure
High95 °F (Aug 24, 2:00 PM)94% (Aug 16, 3:00 PM)29.98 "Hg (Aug 16, 3:00 PM)
Low68 °F (Aug 21, 2:30 AM)47% (Aug 24, 2:00 PM)29.65 "Hg (Aug 24, 2:00 PM)
Average78 °F77%29.84 "Hg
* Reported Aug 15 1:00 PM — Aug 30 1:30 PM, Hangzhou, Weather by CustomWeather, © 2014

Note: Actual official high and low records may vary slightly from our data, if they occured in-between our weather recording intervals... More about our weather records

Advertising

Hangzhou weather history for previous 24 hours

 ConditionsComfort  
Time TempWeatherWind HumidityBarometerVisibility
1:30 PM
Aug 30
84 °FScattered clouds.1 mph55%29.89 "Hg4 mi
1:00 PM84 °FScattered clouds.1 mph58%29.92 "Hg3 mi
12:30 PM82 °FScattered clouds.1 mph58%29.92 "Hg3 mi
12:00 PM82 °FScattered clouds.3 mph62%29.95 "Hg2 mi
11:30 AM82 °FScattered clouds.3 mph62%29.95 "Hg2 mi
11:00 AM82 °FScattered clouds.3 mph62%29.95 "Hg2 mi
10:30 AM82 °FHaze.3 mph62%29.95 "Hg2 mi
10:00 AM82 °FHaze.6 mph66%29.98 "Hg2 mi
9:30 AM81 °FScattered clouds.8 mph66%29.98 "Hg2 mi
9:00 AM81 °FScattered clouds.6 mph70%29.98 "Hg2 mi
8:30 AM79 °FFog.3 mph74%29.98 "Hg2 mi
8:00 AM77 °FFog.3 mph79%29.98 "Hg2 mi
7:30 AM77 °FFog.3 mph79%29.95 "Hg2 mi
7:00 AM77 °FFog.6 mph79%29.95 "Hg2 mi
6:30 AM77 °FFog.3 mph79%29.95 "Hg1 mi
6:00 AM75 °FFog.6 mph83%29.95 "Hg1 mi
5:30 AM75 °FFog.3 mph83%29.95 "Hg1 mi
5:00 AM77 °FFog.1 mph79%29.95 "Hg2 mi
3:00 AM77 °FFog.3 mph79%29.95 "Hg2 mi
2:30 AM77 °FFog.3 mph79%29.95 "Hg2 mi
2:00 AM77 °FFog.3 mph79%29.95 "Hg2 mi
1:30 AM77 °FFog.3 mph79%29.95 "Hg2 mi
1:00 AM77 °FFog.1 mph79%29.95 "Hg2 mi
12:30 AM77 °FFog.3 mph79%29.95 "Hg2 mi
12:00 AM77 °FFog.1 mph79%29.98 "Hg2 mi
11:30 PM
Aug 29
77 °FFog.1 mph79%29.95 "Hg2 mi
11:00 PM77 °FFog.1 mph79%29.98 "Hg2 mi
10:30 PM77 °FFog.1 mph79%29.98 "Hg2 mi
10:00 PM79 °FFog.1 mph74%29.98 "Hg2 mi
9:30 PM79 °FFog.3 mph74%29.98 "Hg2 mi
9:00 PM79 °FFog.3 mph74%29.98 "Hg2 mi
8:30 PM79 °FFog.6 mph74%29.98 "Hg2 mi
8:00 PM79 °FFog.6 mph79%29.95 "Hg2 mi
7:30 PM79 °FFog.3 mph79%29.95 "Hg3 mi
7:00 PM79 °FFog.6 mph79%29.92 "Hg3 mi
6:30 PM81 °FFog.6 mph74%29.92 "Hg2 mi
6:00 PM81 °FFog.6 mph74%29.92 "Hg2 mi
5:30 PM81 °FFog.3 mph79%29.92 "Hg2 mi
5:00 PM81 °FFog.8 mph74%29.92 "Hg2 mi
4:30 PM84 °FScattered clouds.10 mph66%29.89 "Hg3 mi
4:00 PM86 °FScattered clouds.8 mph62%29.89 "Hg4 mi
3:30 PM86 °FScattered clouds.6 mph62%29.89 "Hg4 mi
3:00 PM86 °FScattered clouds.6 mph62%29.89 "Hg4 mi
Weather by CustomWeather, © 2014

See weather overviewHow to use our weather pages